Year,Month,Day,Hour,Minute,Value (Times are PST for windspeed in km/hr)
2020,09,09,00,00,0.00
2020,09,09,00,01,0.00
2020,09,09,00,02,0.00
2020,09,09,00,03,0.00
2020,09,09,00,04,0.00
2020,09,09,00,05,0.00
2020,09,09,00,06,0.00
2020,09,09,00,07,0.00
2020,09,09,00,08,0.00
2020,09,09,00,09,0.00
2020,09,09,00,10,0.00
2020,09,09,00,11,0.00
2020,09,09,00,12,0.00
2020,09,09,00,13,0.00
2020,09,09,00,14,0.00
2020,09,09,00,15,0.00
2020,09,09,00,16,0.00
2020,09,09,00,17,0.00
2020,09,09,00,18,0.00
2020,09,09,00,19,0.00
2020,09,09,00,20,0.00
2020,09,09,00,21,0.00
2020,09,09,00,22,0.00
2020,09,09,00,23,0.00
2020,09,09,00,24,0.00
2020,09,09,00,25,0.00
2020,09,09,00,26,0.00
2020,09,09,00,27,0.00
2020,09,09,00,28,0.00
2020,09,09,00,29,0.00
2020,09,09,00,30,0.00
2020,09,09,00,31,0.00
2020,09,09,00,32,0.00
2020,09,09,00,33,0.00
2020,09,09,00,34,0.00
2020,09,09,00,35,0.00
2020,09,09,00,36,0.00
2020,09,09,00,37,0.00
2020,09,09,00,38,0.00
2020,09,09,00,39,0.00
2020,09,09,00,40,0.00
2020,09,09,00,41,0.00
2020,09,09,00,42,0.00
2020,09,09,00,43,0.00
2020,09,09,00,44,0.00
2020,09,09,00,45,0.00
2020,09,09,00,46,0.00
2020,09,09,00,47,0.00
2020,09,09,00,48,0.00
2020,09,09,00,49,0.00
2020,09,09,00,50,0.00
2020,09,09,00,51,0.00
2020,09,09,00,52,0.00
2020,09,09,00,53,0.00
2020,09,09,00,54,0.00
2020,09,09,00,55,0.00
2020,09,09,00,56,0.00
2020,09,09,00,57,0.00
2020,09,09,00,58,0.00
2020,09,09,00,59,0.00
2020,09,09,01,00,0.00
2020,09,09,01,01,0.00
2020,09,09,01,02,0.00
2020,09,09,01,03,0.00
2020,09,09,01,04,0.00
2020,09,09,01,05,0.00
2020,09,09,01,06,0.00
2020,09,09,01,07,0.00
2020,09,09,01,08,0.00
2020,09,09,01,09,0.00
2020,09,09,01,10,0.00
2020,09,09,01,11,0.00
2020,09,09,01,12,0.00
2020,09,09,01,13,0.00
2020,09,09,01,14,0.00
2020,09,09,01,15,0.00
2020,09,09,01,16,0.00
2020,09,09,01,17,0.00
2020,09,09,01,18,0.00
2020,09,09,01,19,0.00
2020,09,09,01,20,0.00
2020,09,09,01,21,0.00
2020,09,09,01,22,0.00
2020,09,09,01,23,0.00
2020,09,09,01,24,0.00
2020,09,09,01,25,0.00
2020,09,09,01,26,0.00
2020,09,09,01,27,0.00
2020,09,09,01,28,0.00
2020,09,09,01,29,0.00
2020,09,09,01,30,0.00
2020,09,09,01,31,0.00
2020,09,09,01,32,0.00
2020,09,09,01,33,0.00
2020,09,09,01,34,0.00
2020,09,09,01,35,0.00
2020,09,09,01,36,0.00
2020,09,09,01,37,0.00
2020,09,09,01,38,0.00
2020,09,09,01,39,0.00
2020,09,09,01,40,0.00
2020,09,09,01,41,0.00
2020,09,09,01,42,0.00
2020,09,09,01,43,0.00
2020,09,09,01,44,0.00
2020,09,09,01,45,0.00
2020,09,09,01,46,0.00
2020,09,09,01,47,0.00
2020,09,09,01,48,0.00
2020,09,09,01,49,0.00
2020,09,09,01,50,0.00
2020,09,09,01,51,0.00
2020,09,09,01,52,0.00
2020,09,09,01,53,0.00
2020,09,09,01,54,0.00
2020,09,09,01,55,0.00
2020,09,09,01,56,0.00
2020,09,09,01,57,0.00
2020,09,09,01,58,0.00
2020,09,09,01,59,0.00
2020,09,09,02,00,0.00
2020,09,09,02,01,0.00
2020,09,09,02,02,0.00
2020,09,09,02,03,0.00
2020,09,09,02,04,0.00
2020,09,09,02,05,0.00
2020,09,09,02,06,0.00
2020,09,09,02,07,0.00
2020,09,09,02,08,0.00
2020,09,09,02,09,0.00
2020,09,09,02,10,0.00
2020,09,09,02,11,0.00
2020,09,09,02,12,0.00
2020,09,09,02,13,0.00
2020,09,09,02,14,0.00
2020,09,09,02,15,0.00
2020,09,09,02,16,0.00
2020,09,09,02,17,0.00
2020,09,09,02,18,0.00
2020,09,09,02,19,0.00
2020,09,09,02,20,0.00
2020,09,09,02,21,0.00
2020,09,09,02,22,0.00
2020,09,09,02,23,0.00
2020,09,09,02,24,0.00
2020,09,09,02,25,0.00
2020,09,09,02,26,0.00
2020,09,09,02,27,0.00
2020,09,09,02,28,0.00
2020,09,09,02,29,0.00
2020,09,09,02,30,0.00
2020,09,09,02,31,0.00
2020,09,09,02,32,0.00
2020,09,09,02,33,0.00
2020,09,09,02,34,0.00
2020,09,09,02,35,0.00
2020,09,09,02,36,0.00
2020,09,09,02,37,0.00
2020,09,09,02,38,0.00
2020,09,09,02,39,0.00
2020,09,09,02,40,0.00
2020,09,09,02,41,0.00
2020,09,09,02,42,0.00
2020,09,09,02,43,0.00
2020,09,09,02,44,0.00
2020,09,09,02,45,0.00
2020,09,09,02,46,0.00
2020,09,09,02,47,0.00
2020,09,09,02,48,0.00
2020,09,09,02,49,0.00
2020,09,09,02,50,0.00
2020,09,09,02,51,0.00
2020,09,09,02,52,0.00
2020,09,09,02,53,0.00
2020,09,09,02,54,0.00
2020,09,09,02,55,0.00
2020,09,09,02,56,0.00
2020,09,09,02,57,0.00
2020,09,09,02,58,0.00
2020,09,09,02,59,0.00
2020,09,09,03,00,0.00
2020,09,09,03,01,0.10
2020,09,09,03,02,0.00
2020,09,09,03,03,0.00
2020,09,09,03,04,0.00
2020,09,09,03,05,0.00
2020,09,09,03,06,0.00
2020,09,09,03,07,0.00
2020,09,09,03,08,0.00
2020,09,09,03,09,0.00
2020,09,09,03,10,0.00
2020,09,09,03,11,0.00
2020,09,09,03,12,0.00
2020,09,09,03,13,0.00
2020,09,09,03,14,0.00
2020,09,09,03,15,0.00
2020,09,09,03,16,0.00
2020,09,09,03,17,0.00
2020,09,09,03,18,0.00
2020,09,09,03,19,0.00
2020,09,09,03,20,0.00
2020,09,09,03,21,0.00
2020,09,09,03,22,0.00
2020,09,09,03,23,0.00
2020,09,09,03,24,0.00
2020,09,09,03,25,0.00
2020,09,09,03,26,0.00
2020,09,09,03,27,0.00
2020,09,09,03,28,0.00
2020,09,09,03,29,0.00
2020,09,09,03,30,0.00
2020,09,09,03,31,0.00
2020,09,09,03,32,0.00
2020,09,09,03,33,0.00
2020,09,09,03,34,0.00
2020,09,09,03,35,0.00
2020,09,09,03,36,0.00
2020,09,09,03,37,0.00
2020,09,09,03,38,0.00
2020,09,09,03,39,0.00
2020,09,09,03,40,0.00
2020,09,09,03,41,0.00
2020,09,09,03,42,0.00
2020,09,09,03,43,0.00
2020,09,09,03,44,0.00
2020,09,09,03,45,0.00
2020,09,09,03,46,0.00
2020,09,09,03,47,0.00
2020,09,09,03,48,0.00
2020,09,09,03,49,0.00
2020,09,09,03,50,0.00
2020,09,09,03,51,0.00
2020,09,09,03,52,0.00
2020,09,09,03,53,0.00
2020,09,09,03,54,0.00
2020,09,09,03,55,0.00
2020,09,09,03,56,0.00
2020,09,09,03,57,0.00
2020,09,09,03,58,0.00
2020,09,09,03,59,0.70
2020,09,09,04,00,0.00
2020,09,09,04,01,0.00
2020,09,09,04,02,0.00
2020,09,09,04,03,0.00
2020,09,09,04,04,0.10
2020,09,09,04,05,0.00
2020,09,09,04,06,0.00
2020,09,09,04,07,0.00
2020,09,09,04,08,0.00
2020,09,09,04,09,0.70
2020,09,09,04,10,1.60
2020,09,09,04,11,3.30
2020,09,09,04,12,1.40
2020,09,09,04,13,1.00
2020,09,09,04,14,0.00
2020,09,09,04,15,0.00
2020,09,09,04,16,0.00
2020,09,09,04,17,0.00
2020,09,09,04,18,0.00
2020,09,09,04,19,0.00
2020,09,09,04,20,0.90
2020,09,09,04,21,0.00
2020,09,09,04,22,0.00
2020,09,09,04,23,0.40
2020,09,09,04,24,0.00
2020,09,09,04,25,1.00
2020,09,09,04,26,0.00
2020,09,09,04,27,1.90
2020,09,09,04,28,2.30
2020,09,09,04,29,0.00
2020,09,09,04,30,0.00
2020,09,09,04,31,0.00
2020,09,09,04,32,0.00
2020,09,09,04,33,0.10
2020,09,09,04,34,0.00
2020,09,09,04,35,1.10
2020,09,09,04,36,0.00
2020,09,09,04,37,0.00
2020,09,09,04,38,0.00
2020,09,09,04,39,0.20
2020,09,09,04,40,0.00
2020,09,09,04,41,0.00
2020,09,09,04,42,1.30
2020,09,09,04,43,0.00
2020,09,09,04,44,0.00
2020,09,09,04,45,0.00
2020,09,09,04,46,0.00
2020,09,09,04,47,0.20
2020,09,09,04,48,0.00
2020,09,09,04,49,1.10
2020,09,09,04,50,0.80
2020,09,09,04,51,0.10
2020,09,09,04,52,0.00
2020,09,09,04,53,0.00
2020,09,09,04,54,0.60
2020,09,09,04,55,0.60
2020,09,09,04,56,0.30
2020,09,09,04,57,0.50
2020,09,09,04,58,6.20
2020,09,09,04,59,3.50
2020,09,09,05,00,2.30
2020,09,09,05,01,0.00
2020,09,09,05,02,0.30
2020,09,09,05,03,1.40
2020,09,09,05,04,0.00
2020,09,09,05,05,0.00
2020,09,09,05,06,0.00
2020,09,09,05,07,0.00
2020,09,09,05,08,0.00
2020,09,09,05,09,0.00
2020,09,09,05,10,0.00
2020,09,09,05,11,0.30
2020,09,09,05,12,0.70
2020,09,09,05,13,0.00
2020,09,09,05,14,0.00
2020,09,09,05,15,0.00
2020,09,09,05,16,0.00
2020,09,09,05,17,0.00
2020,09,09,05,18,0.00
2020,09,09,05,19,0.00
2020,09,09,05,20,0.80
2020,09,09,05,21,0.30
2020,09,09,05,22,1.00
2020,09,09,05,23,0.00
2020,09,09,05,24,0.00
2020,09,09,05,25,0.00
2020,09,09,05,26,1.90
2020,09,09,05,27,0.00
2020,09,09,05,28,0.00
2020,09,09,05,29,1.10
2020,09,09,05,30,0.00
2020,09,09,05,31,0.00
2020,09,09,05,32,0.10
2020,09,09,05,33,0.10
2020,09,09,05,34,1.20
2020,09,09,05,35,0.00
2020,09,09,05,36,0.00
2020,09,09,05,37,0.00
2020,09,09,05,38,0.00
2020,09,09,05,39,0.20
2020,09,09,05,40,0.00
2020,09,09,05,41,0.00
2020,09,09,05,42,0.00
2020,09,09,05,43,0.00
2020,09,09,05,44,0.00
2020,09,09,05,45,0.00
2020,09,09,05,46,0.10
2020,09,09,05,47,1.30
2020,09,09,05,48,0.00
2020,09,09,05,49,1.70
2020,09,09,05,50,0.90
2020,09,09,05,51,2.00
2020,09,09,05,52,0.00
2020,09,09,05,53,0.30
2020,09,09,05,54,3.50
2020,09,09,05,55,0.00
2020,09,09,05,56,0.00
2020,09,09,05,57,0.00
2020,09,09,05,58,0.00
2020,09,09,05,59,0.00
2020,09,09,06,00,0.00
2020,09,09,06,01,0.00
2020,09,09,06,02,0.00
2020,09,09,06,03,0.00
2020,09,09,06,04,0.00
2020,09,09,06,05,0.00
2020,09,09,06,06,0.00
2020,09,09,06,07,0.10
2020,09,09,06,08,0.00
2020,09,09,06,09,0.00
2020,09,09,06,10,0.00
2020,09,09,06,11,0.00
2020,09,09,06,12,0.00
2020,09,09,06,13,0.00
2020,09,09,06,14,0.00
2020,09,09,06,15,0.00
2020,09,09,06,16,0.00
2020,09,09,06,17,0.10
2020,09,09,06,18,0.00
2020,09,09,06,19,0.00
2020,09,09,06,20,0.00
2020,09,09,06,21,0.00
2020,09,09,06,22,0.00
2020,09,09,06,23,0.00
2020,09,09,06,24,0.00
2020,09,09,06,25,0.00
2020,09,09,06,26,0.00
2020,09,09,06,27,0.00
2020,09,09,06,28,0.30
2020,09,09,06,29,0.00
2020,09,09,06,30,0.00
2020,09,09,06,31,0.00
2020,09,09,06,32,0.00
2020,09,09,06,33,0.00
2020,09,09,06,34,0.00
2020,09,09,06,35,0.00
2020,09,09,06,36,0.00
2020,09,09,06,37,0.00
2020,09,09,06,38,0.00
2020,09,09,06,39,0.00
2020,09,09,06,40,0.00
2020,09,09,06,41,0.00
2020,09,09,06,42,0.00
2020,09,09,06,43,1.30
2020,09,09,06,44,5.30
2020,09,09,06,45,0.90
2020,09,09,06,46,0.00
2020,09,09,06,47,2.50
2020,09,09,06,48,0.70
2020,09,09,06,49,4.00
2020,09,09,06,50,2.70
2020,09,09,06,51,0.70
2020,09,09,06,52,0.00
2020,09,09,06,53,0.00
2020,09,09,06,54,0.00
2020,09,09,06,55,0.00
2020,09,09,06,56,0.00
2020,09,09,06,57,0.00
2020,09,09,06,58,0.00
2020,09,09,06,59,0.00
2020,09,09,07,00,0.60
2020,09,09,07,01,0.00
2020,09,09,07,02,0.00
2020,09,09,07,03,0.00
2020,09,09,07,04,0.00
2020,09,09,07,05,0.00
2020,09,09,07,06,3.10
2020,09,09,07,07,1.90
2020,09,09,07,08,0.00
2020,09,09,07,09,0.00
2020,09,09,07,10,3.20
2020,09,09,07,11,0.70
2020,09,09,07,12,2.10
2020,09,09,07,13,0.80
2020,09,09,07,14,0.80
2020,09,09,07,15,0.80
2020,09,09,07,16,0.20
2020,09,09,07,17,0.60
2020,09,09,07,18,1.60
2020,09,09,07,19,1.20
2020,09,09,07,20,0.00
2020,09,09,07,21,2.70
2020,09,09,07,22,0.00
2020,09,09,07,23,0.90
2020,09,09,07,24,1.90
2020,09,09,07,25,0.10
2020,09,09,07,26,0.00
2020,09,09,07,27,0.80
2020,09,09,07,28,2.40
2020,09,09,07,29,0.20
2020,09,09,07,30,2.20
2020,09,09,07,31,3.30
2020,09,09,07,32,6.00
2020,09,09,07,33,5.60
2020,09,09,07,34,5.30
2020,09,09,07,35,4.60
2020,09,09,07,36,3.40
2020,09,09,07,37,1.60
2020,09,09,07,38,7.60
2020,09,09,07,39,5.70
2020,09,09,07,40,7.00
2020,09,09,07,41,4.20
2020,09,09,07,42,4.60
2020,09,09,07,43,4.00
2020,09,09,07,44,4.20
2020,09,09,07,45,3.70
2020,09,09,07,46,4.40
2020,09,09,07,47,2.30
2020,09,09,07,48,2.60
2020,09,09,07,49,3.00
2020,09,09,07,50,2.40
2020,09,09,07,51,0.40
2020,09,09,07,52,0.80
2020,09,09,07,53,3.40
2020,09,09,07,54,3.90
2020,09,09,07,55,5.30
2020,09,09,07,56,1.90
2020,09,09,07,57,1.00
2020,09,09,07,58,5.30
2020,09,09,07,59,4.30
2020,09,09,08,00,4.20
2020,09,09,08,01,6.30
2020,09,09,08,02,3.00
2020,09,09,08,03,7.90
2020,09,09,08,04,6.80
2020,09,09,08,05,6.50
2020,09,09,08,06,10.10
2020,09,09,08,07,11.10
2020,09,09,08,08,10.90
2020,09,09,08,09,5.50
2020,09,09,08,10,2.90
2020,09,09,08,11,5.30
2020,09,09,08,12,8.00
2020,09,09,08,13,7.40
2020,09,09,08,14,9.30
2020,09,09,08,15,7.80
2020,09,09,08,16,5.90
2020,09,09,08,17,4.60
2020,09,09,08,18,6.50
2020,09,09,08,19,9.80
2020,09,09,08,20,6.10
2020,09,09,08,21,3.40
2020,09,09,08,22,3.70
2020,09,09,08,23,1.30
2020,09,09,08,24,0.30
2020,09,09,08,25,1.80
2020,09,09,08,26,0.10
2020,09,09,08,27,3.40
2020,09,09,08,28,0.00
2020,09,09,08,29,2.40
2020,09,09,08,30,0.40
2020,09,09,08,31,0.00
2020,09,09,08,32,2.20
2020,09,09,08,33,1.60
2020,09,09,08,34,4.60
2020,09,09,08,35,5.90
2020,09,09,08,36,6.70
2020,09,09,08,37,7.70
2020,09,09,08,38,5.10
2020,09,09,08,39,6.50
2020,09,09,08,40,10.60
2020,09,09,08,41,5.00
2020,09,09,08,42,7.10
2020,09,09,08,43,7.90
2020,09,09,08,44,6.80
2020,09,09,08,45,7.10
2020,09,09,08,46,11.00
2020,09,09,08,47,8.90
2020,09,09,08,48,7.40
2020,09,09,08,49,6.60
2020,09,09,08,50,7.70
2020,09,09,08,51,7.20
2020,09,09,08,52,6.10
2020,09,09,08,53,7.60
2020,09,09,08,54,7.90
2020,09,09,08,55,8.50
2020,09,09,08,56,2.60
2020,09,09,08,57,6.30
2020,09,09,08,58,7.60
2020,09,09,08,59,8.50
2020,09,09,09,00,9.00
2020,09,09,09,01,7.80
2020,09,09,09,02,6.60
2020,09,09,09,03,11.30
2020,09,09,09,04,8.20
2020,09,09,09,05,7.00
2020,09,09,09,06,7.80
2020,09,09,09,07,8.10
2020,09,09,09,08,9.80
2020,09,09,09,09,11.00
2020,09,09,09,10,9.30
2020,09,09,09,11,6.50
2020,09,09,09,12,5.50
2020,09,09,09,13,8.50
2020,09,09,09,14,7.60
2020,09,09,09,15,2.70
2020,09,09,09,16,4.10
2020,09,09,09,17,7.70
2020,09,09,09,18,6.50
2020,09,09,09,19,7.80
2020,09,09,09,20,4.80
2020,09,09,09,21,0.60
2020,09,09,09,22,0.00
2020,09,09,09,23,1.30
2020,09,09,09,24,4.30
2020,09,09,09,25,5.10
2020,09,09,09,26,7.80
2020,09,09,09,27,8.30
2020,09,09,09,28,5.60
2020,09,09,09,29,10.40
2020,09,09,09,30,11.40
2020,09,09,09,31,10.30
2020,09,09,09,32,7.30
2020,09,09,09,33,10.50
2020,09,09,09,34,8.20
2020,09,09,09,35,7.80
2020,09,09,09,36,7.20
2020,09,09,09,37,7.90
2020,09,09,09,38,8.10
2020,09,09,09,39,9.50
2020,09,09,09,40,8.40
2020,09,09,09,41,6.40
2020,09,09,09,42,6.50
2020,09,09,09,43,6.70
2020,09,09,09,44,7.90
2020,09,09,09,45,6.90
2020,09,09,09,46,3.20
2020,09,09,09,47,5.20
2020,09,09,09,48,3.70
2020,09,09,09,49,1.90
2020,09,09,09,50,1.10
2020,09,09,09,51,3.30
2020,09,09,09,52,3.80
2020,09,09,09,53,2.50
2020,09,09,09,54,4.10
2020,09,09,09,55,3.00
2020,09,09,09,56,7.60
2020,09,09,09,57,9.10
2020,09,09,09,58,3.90
2020,09,09,09,59,5.60
2020,09,09,10,00,4.90
2020,09,09,10,01,1.40
2020,09,09,10,02,4.50
2020,09,09,10,03,0.50
2020,09,09,10,04,1.00
2020,09,09,10,05,0.20
2020,09,09,10,06,7.90
2020,09,09,10,07,1.90
2020,09,09,10,08,4.60
2020,09,09,10,09,2.70
2020,09,09,10,10,2.90
2020,09,09,10,11,6.50
2020,09,09,10,12,3.40
2020,09,09,10,13,4.00
2020,09,09,10,14,6.20
2020,09,09,10,15,5.70
2020,09,09,10,16,1.10
2020,09,09,10,17,2.20
2020,09,09,10,18,6.10
2020,09,09,10,19,4.90
2020,09,09,10,20,1.70
2020,09,09,10,21,0.80
2020,09,09,10,22,2.50
2020,09,09,10,23,4.60
2020,09,09,10,24,7.80
2020,09,09,10,25,7.20
2020,09,09,10,26,1.10
2020,09,09,10,27,8.30
2020,09,09,10,28,8.00
2020,09,09,10,29,7.80
2020,09,09,10,30,3.30
2020,09,09,10,31,8.60
2020,09,09,10,32,4.30
2020,09,09,10,33,10.00
2020,09,09,10,34,9.20
2020,09,09,10,35,6.30
2020,09,09,10,36,7.00
2020,09,09,10,37,5.80
2020,09,09,10,38,3.50
2020,09,09,10,39,4.70
2020,09,09,10,40,6.00
2020,09,09,10,41,5.70
2020,09,09,10,42,4.10
2020,09,09,10,43,6.60
2020,09,09,10,44,4.30
2020,09,09,10,45,3.10
2020,09,09,10,46,7.80
2020,09,09,10,47,8.40
2020,09,09,10,48,5.60
2020,09,09,10,49,7.60
2020,09,09,10,50,4.60
2020,09,09,10,51,3.60
2020,09,09,10,52,5.70
2020,09,09,10,53,7.90
2020,09,09,10,54,6.80
2020,09,09,10,55,2.30
2020,09,09,10,56,3.60
2020,09,09,10,57,3.90
2020,09,09,10,58,3.70
2020,09,09,10,59,2.70
2020,09,09,11,00,5.00
2020,09,09,11,01,9.10
2020,09,09,11,02,6.10
2020,09,09,11,03,10.60
2020,09,09,11,04,10.10
2020,09,09,11,05,7.70
2020,09,09,11,06,8.30
2020,09,09,11,07,7.00
2020,09,09,11,08,6.00
2020,09,09,11,09,5.90
2020,09,09,11,10,7.50
2020,09,09,11,11,8.00
2020,09,09,11,12,6.60
2020,09,09,11,13,8.00
2020,09,09,11,14,8.40
2020,09,09,11,15,6.90
2020,09,09,11,16,5.50
2020,09,09,11,17,7.70
2020,09,09,11,18,11.50
2020,09,09,11,19,6.20
2020,09,09,11,20,9.60
2020,09,09,11,21,13.00
2020,09,09,11,22,7.70
2020,09,09,11,23,7.90
2020,09,09,11,24,7.90
2020,09,09,11,25,11.20
2020,09,09,11,26,12.40
2020,09,09,11,27,5.50
2020,09,09,11,28,4.80
2020,09,09,11,29,3.50
2020,09,09,11,30,1.20
2020,09,09,11,31,6.80
2020,09,09,11,32,5.40
2020,09,09,11,33,7.40
2020,09,09,11,34,6.60
2020,09,09,11,35,7.50
2020,09,09,11,36,7.40
2020,09,09,11,37,3.70
2020,09,09,11,38,2.70
2020,09,09,11,39,7.90
2020,09,09,11,40,8.80
2020,09,09,11,41,9.80
2020,09,09,11,42,9.70
2020,09,09,11,43,10.30
2020,09,09,11,44,9.40
2020,09,09,11,45,12.30
2020,09,09,11,46,9.40
2020,09,09,11,47,10.60
2020,09,09,11,48,4.50
2020,09,09,11,49,8.70
2020,09,09,11,50,9.30
2020,09,09,11,51,8.50
2020,09,09,11,52,5.30
2020,09,09,11,53,9.20
2020,09,09,11,54,11.30
2020,09,09,11,55,10.10
2020,09,09,11,56,8.00
2020,09,09,11,57,7.10
2020,09,09,11,58,9.20
2020,09,09,11,59,9.70
2020,09,09,12,00,12.10
2020,09,09,12,01,7.90
2020,09,09,12,02,11.30
2020,09,09,12,03,13.70
2020,09,09,12,04,12.10
2020,09,09,12,05,8.00
2020,09,09,12,06,13.00
2020,09,09,12,07,9.70
2020,09,09,12,08,6.90
2020,09,09,12,09,13.30
2020,09,09,12,10,8.80
2020,09,09,12,11,11.10
2020,09,09,12,12,14.60
2020,09,09,12,13,8.20
2020,09,09,12,14,6.80
2020,09,09,12,15,8.30
2020,09,09,12,16,9.00
2020,09,09,12,17,6.70
2020,09,09,12,18,10.70
2020,09,09,12,19,13.20
2020,09,09,12,20,9.50
2020,09,09,12,21,4.50
2020,09,09,12,22,10.00
2020,09,09,12,23,12.30
2020,09,09,12,24,10.00
2020,09,09,12,25,6.40
2020,09,09,12,26,10.90
2020,09,09,12,27,8.60
2020,09,09,12,28,6.30
2020,09,09,12,29,8.30
2020,09,09,12,30,7.20
2020,09,09,12,31,6.40
2020,09,09,12,32,2.90
2020,09,09,12,33,7.90
2020,09,09,12,34,8.60
2020,09,09,12,35,11.00
2020,09,09,12,36,11.40
2020,09,09,12,37,5.60
2020,09,09,12,38,7.20
2020,09,09,12,39,3.60
2020,09,09,12,40,10.10
2020,09,09,12,41,9.00
2020,09,09,12,42,12.10
2020,09,09,12,43,10.90
2020,09,09,12,44,16.90
2020,09,09,12,45,11.80
2020,09,09,12,46,8.40
2020,09,09,12,47,8.60
2020,09,09,12,48,12.90
2020,09,09,12,49,14.40
2020,09,09,12,50,8.60
2020,09,09,12,51,9.50
2020,09,09,12,52,8.60
2020,09,09,12,53,8.80
2020,09,09,12,54,11.30
2020,09,09,12,55,15.50
2020,09,09,12,56,10.80
2020,09,09,12,57,6.30
2020,09,09,12,58,9.90
2020,09,09,12,59,11.80
2020,09,09,13,00,10.50
2020,09,09,13,01,6.00
2020,09,09,13,02,9.50
2020,09,09,13,03,14.10
2020,09,09,13,04,13.40
2020,09,09,13,05,17.40
2020,09,09,13,06,14.20
2020,09,09,13,07,8.50
2020,09,09,13,08,8.80
2020,09,09,13,09,8.60
2020,09,09,13,10,10.00
2020,09,09,13,11,7.10
2020,09,09,13,12,4.80
2020,09,09,13,13,8.00
2020,09,09,13,14,13.70
2020,09,09,13,15,10.10
2020,09,09,13,16,8.10
2020,09,09,13,17,10.00
2020,09,09,13,18,9.50
2020,09,09,13,19,10.10
2020,09,09,13,20,9.20
2020,09,09,13,21,9.30
2020,09,09,13,22,9.70
2020,09,09,13,23,7.40
2020,09,09,13,24,12.70
2020,09,09,13,25,4.80
2020,09,09,13,26,5.50
2020,09,09,13,27,10.60
2020,09,09,13,28,7.50
2020,09,09,13,29,5.30
2020,09,09,13,30,1.00
2020,09,09,13,31,5.80
2020,09,09,13,32,10.90
2020,09,09,13,33,18.50
2020,09,09,13,34,18.90
2020,09,09,13,35,15.30
2020,09,09,13,36,17.10
2020,09,09,13,37,15.20
2020,09,09,13,38,16.30
2020,09,09,13,39,11.30
2020,09,09,13,40,10.70
2020,09,09,13,41,12.80
2020,09,09,13,42,12.30
2020,09,09,13,43,9.80
2020,09,09,13,44,13.20
2020,09,09,13,45,14.80
2020,09,09,13,46,10.00
2020,09,09,13,47,14.90
2020,09,09,13,48,14.10
2020,09,09,13,49,14.50
2020,09,09,13,50,16.50
2020,09,09,13,51,9.70
2020,09,09,13,52,8.00
2020,09,09,13,53,5.10
2020,09,09,13,54,10.50
2020,09,09,13,55,11.00
2020,09,09,13,56,8.80
2020,09,09,13,57,10.80
2020,09,09,13,58,10.10
2020,09,09,13,59,11.50
2020,09,09,14,00,10.20
2020,09,09,14,01,8.90
2020,09,09,14,02,12.10
2020,09,09,14,03,9.10
2020,09,09,14,04,7.10
2020,09,09,14,05,5.30
2020,09,09,14,06,6.90
2020,09,09,14,07,6.30
2020,09,09,14,08,8.10
2020,09,09,14,09,7.30
2020,09,09,14,10,9.50
2020,09,09,14,11,11.50
2020,09,09,14,12,10.70
2020,09,09,14,13,9.80
2020,09,09,14,14,13.00
2020,09,09,14,15,10.90
2020,09,09,14,16,14.20
2020,09,09,14,17,15.30
2020,09,09,14,18,13.90
2020,09,09,14,19,8.80
2020,09,09,14,20,6.60
2020,09,09,14,21,6.00
2020,09,09,14,22,12.00
2020,09,09,14,23,8.50
2020,09,09,14,24,7.30
2020,09,09,14,25,7.40
2020,09,09,14,26,8.20
2020,09,09,14,27,7.00
2020,09,09,14,28,11.80
2020,09,09,14,29,9.80
2020,09,09,14,30,10.70
2020,09,09,14,31,9.10
2020,09,09,14,32,9.10
2020,09,09,14,33,5.30
2020,09,09,14,34,7.60
2020,09,09,14,35,7.90
2020,09,09,14,36,7.30
2020,09,09,14,37,7.20
2020,09,09,14,38,8.10
2020,09,09,14,39,9.70
2020,09,09,14,40,7.50
2020,09,09,14,41,6.10
2020,09,09,14,42,4.30
2020,09,09,14,43,8.80
2020,09,09,14,44,4.90
2020,09,09,14,45,5.80
2020,09,09,14,46,15.20
2020,09,09,14,47,10.40
2020,09,09,14,48,3.60
2020,09,09,14,49,5.50
2020,09,09,14,50,5.30
2020,09,09,14,51,6.80
2020,09,09,14,52,9.20
2020,09,09,14,53,9.30
2020,09,09,14,54,9.20
2020,09,09,14,55,10.10
2020,09,09,14,56,8.70
2020,09,09,14,57,12.60
2020,09,09,14,58,9.40
2020,09,09,14,59,10.70
2020,09,09,15,00,6.90
2020,09,09,15,01,5.30
2020,09,09,15,02,5.50
2020,09,09,15,03,8.50
2020,09,09,15,04,3.30
2020,09,09,15,05,4.60
2020,09,09,15,06,0.30
2020,09,09,15,07,5.40
2020,09,09,15,08,4.00
2020,09,09,15,09,6.30
2020,09,09,15,10,7.20
2020,09,09,15,11,11.50
2020,09,09,15,12,3.80
2020,09,09,15,13,0.30
2020,09,09,15,14,0.10
2020,09,09,15,15,0.20
2020,09,09,15,16,2.90
2020,09,09,15,17,0.80
2020,09,09,15,18,3.70
2020,09,09,15,19,2.40
2020,09,09,15,20,4.90
2020,09,09,15,21,2.70
2020,09,09,15,22,0.40
2020,09,09,15,23,4.10
2020,09,09,15,24,2.00
2020,09,09,15,25,5.50
2020,09,09,15,26,6.30
2020,09,09,15,27,2.20
2020,09,09,15,28,2.50
2020,09,09,15,29,5.60
2020,09,09,15,30,5.50
2020,09,09,15,31,8.90
2020,09,09,15,32,7.60
2020,09,09,15,33,8.30
2020,09,09,15,34,5.60
2020,09,09,15,35,0.30
2020,09,09,15,36,0.10
2020,09,09,15,37,3.10
2020,09,09,15,38,8.80
2020,09,09,15,39,4.50
2020,09,09,15,40,3.80
2020,09,09,15,41,4.70
2020,09,09,15,42,2.40
2020,09,09,15,43,2.00
2020,09,09,15,44,5.70
2020,09,09,15,45,8.80
2020,09,09,15,46,7.80
2020,09,09,15,47,11.20
2020,09,09,15,48,5.70
2020,09,09,15,49,3.50
2020,09,09,15,50,2.70
2020,09,09,15,51,0.10
2020,09,09,15,52,0.10
2020,09,09,15,53,7.60
2020,09,09,15,54,1.50
2020,09,09,15,55,0.20
2020,09,09,15,56,0.00
2020,09,09,15,57,2.80
2020,09,09,15,58,2.20
2020,09,09,15,59,2.20
2020,09,09,16,00,1.90
2020,09,09,16,01,4.20
2020,09,09,16,02,3.10
2020,09,09,16,03,3.40
2020,09,09,16,04,1.00
2020,09,09,16,05,2.40
2020,09,09,16,06,0.20
2020,09,09,16,07,12.20
2020,09,09,16,08,6.90
2020,09,09,16,09,2.70
2020,09,09,16,10,1.30
2020,09,09,16,11,4.80
2020,09,09,16,12,0.20
2020,09,09,16,13,5.50
2020,09,09,16,14,3.10
2020,09,09,16,15,8.70
2020,09,09,16,16,5.50
2020,09,09,16,17,9.00
2020,09,09,16,18,5.80
2020,09,09,16,19,8.00
2020,09,09,16,20,5.40
2020,09,09,16,21,5.60
2020,09,09,16,22,6.00
2020,09,09,16,23,2.50
2020,09,09,16,24,3.60
2020,09,09,16,25,2.70
2020,09,09,16,26,6.20
2020,09,09,16,27,5.20
2020,09,09,16,28,1.50
2020,09,09,16,29,11.70
2020,09,09,16,30,10.10
2020,09,09,16,31,7.40
2020,09,09,16,32,7.70
2020,09,09,16,33,9.00
2020,09,09,16,34,6.40
2020,09,09,16,35,4.30
2020,09,09,16,36,3.70
2020,09,09,16,37,4.20
2020,09,09,16,38,6.10
2020,09,09,16,39,3.60
2020,09,09,16,40,2.80
2020,09,09,16,41,6.80
2020,09,09,16,42,8.50
2020,09,09,16,43,6.80
2020,09,09,16,44,6.90
2020,09,09,16,45,5.70
2020,09,09,16,46,3.60
2020,09,09,16,47,3.90
2020,09,09,16,48,6.40
2020,09,09,16,49,6.90
2020,09,09,16,50,8.20
2020,09,09,16,51,8.60
2020,09,09,16,52,3.90
2020,09,09,16,53,7.50
2020,09,09,16,54,11.10
2020,09,09,16,55,10.10
2020,09,09,16,56,5.00
2020,09,09,16,57,5.30
2020,09,09,16,58,6.40
2020,09,09,16,59,6.40
2020,09,09,17,00,6.30
2020,09,09,17,01,0.80
2020,09,09,17,02,5.10
2020,09,09,17,03,6.80
2020,09,09,17,04,5.50
2020,09,09,17,05,6.50
2020,09,09,17,06,9.10
2020,09,09,17,07,8.90
2020,09,09,17,08,8.10
2020,09,09,17,09,9.60
2020,09,09,17,10,10.10
2020,09,09,17,11,10.80
2020,09,09,17,12,10.50
2020,09,09,17,13,8.90
2020,09,09,17,14,6.10
2020,09,09,17,15,3.10
2020,09,09,17,16,6.00
2020,09,09,17,17,4.70
2020,09,09,17,18,3.40
2020,09,09,17,19,4.90
2020,09,09,17,20,4.40
2020,09,09,17,21,5.80
2020,09,09,17,22,6.20
2020,09,09,17,23,8.50
2020,09,09,17,24,8.10
2020,09,09,17,25,3.50
2020,09,09,17,26,7.30
2020,09,09,17,27,8.30
2020,09,09,17,28,3.50
2020,09,09,17,29,0.80
2020,09,09,17,30,4.30
2020,09,09,17,31,4.00
2020,09,09,17,32,8.60
2020,09,09,17,33,4.60
2020,09,09,17,34,9.60
2020,09,09,17,35,7.10
2020,09,09,17,36,5.70
2020,09,09,17,37,7.90
2020,09,09,17,38,5.90
2020,09,09,17,39,4.00
2020,09,09,17,40,8.20
2020,09,09,17,41,7.10
2020,09,09,17,42,8.40
2020,09,09,17,43,9.10
2020,09,09,17,44,5.10
2020,09,09,17,45,6.70
2020,09,09,17,46,8.00
2020,09,09,17,47,7.90
2020,09,09,17,48,4.70
2020,09,09,17,49,4.70
2020,09,09,17,50,9.30
2020,09,09,17,51,4.80
2020,09,09,17,52,3.40
2020,09,09,17,53,0.60
2020,09,09,17,54,2.00
2020,09,09,17,55,5.20
2020,09,09,17,56,4.80
2020,09,09,17,57,3.90
2020,09,09,17,58,5.10
2020,09,09,17,59,6.50
2020,09,09,18,00,2.80
2020,09,09,18,01,4.90